Weather History for Buffalo, WY

Change the Weather History Date:

Wednesday, March 27, 2013

  Actual Average Record
Temperature  
Mean Temperature 42 °F 37 °F  
Max Temperature 56 °F 49 °F 67 °F (2007)
Min Temperature 28 °F 26 °F 7 °F (2009)
Degree Days  
Heating Degree Days 23 28  
Month to date heating degree days 856 843  
Since 1 July heating degree days 5805 6083  
Cooling Degree Days 0 0  
Month to date cooling degree days 0 0  
Year to date cooling degree days 0 0  
Moisture  
Dew Point 18 °F    
Average Humidity 39    
Maximum Humidity 52    
Minimum Humidity 26    
Precipitation  
Precipitation 0.00 in 0.04 in 0.29 in (2007)
Month to date precipitation 0.08 0.75  
Year to date precipitation 0.69 1.52  
Sea Level Pressure  
Sea Level Pressure 30.00 in    
Wind  
Wind Speed 7 mph (SW)    
Max Wind Speed 16 mph    
Max Gust Speed 21 mph    
Visibility 10 miles    
Events      
T = Trace of Precipitation, MM = Missing Value Source: NWS Daily Summary

Daily Weather History Graph

Daily Weather History Graph

Search for Another Location

Airport:

Trip Planner

Search our weather history database for the weather conditions in past years. The results will help you decide how hot, cold, wet, or windy it might be!

Date:

Astronomy

Mar. 27, 2013 Rise Set
Actual Time 6:56 AM MDT 7:28 PM MDT
Civil Twilight 6:27 AM MDT 7:57 PM MDT
Nautical Twilight 5:53 AM MDT 8:32 PM MDT
Astronomical Twilight 5:17 AM MDT 9:07 PM MDT
Moon 8:18 PM MDT (3/27) 6:47 AM MDT (3/27)
Length of Visible Light 13h 30m
Length of Day
12h 31m
Full, 100% of the Moon is Illuminated
Mar 27
Full
Apr 2
Last Quarter
Apr 10
New
Apr 18
First Quarter
Apr 25
Full

Hourly Weather History & Observations

Time (MDT) Temp. Windchill Dew Point Humidity Pressure Visibility Wind Dir Wind Speed Gust Speed Precip Events Conditions
12:53 AM 30.9 °F 24.3 °F 10.9 °F 43% 30.02 in 10.0 mi WSW 6.9 mph - N/A   Clear
1:53 AM 33.1 °F 30.0 °F 8.1 °F 35% 30.00 in - SW 3.5 mph - N/A   Unknown
2:53 AM 33.1 °F 27.7 °F 10.0 °F 38% 29.99 in 10.0 mi SSW 5.8 mph - N/A   Clear
3:53 AM 28.9 °F 21.1 °F 12.0 °F 49% 29.99 in 10.0 mi WSW 8.1 mph - N/A   Unknown
4:53 AM 32.0 °F 27.5 °F 12.9 °F 45% 29.99 in 10.0 mi West 4.6 mph - N/A   Clear
5:53 AM 28.9 °F 25.2 °F 12.9 °F 51% 30.01 in 10.0 mi West 3.5 mph - N/A   Scattered Clouds
6:53 AM 32.0 °F 24.8 °F 15.1 °F 50% 30.02 in 10.0 mi West 8.1 mph - N/A   Clear
7:53 AM 35.1 °F 28.6 °F 17.1 °F 48% 30.06 in 10.0 mi SW 8.1 mph - N/A   Clear
8:53 AM 43.0 °F 41.3 °F 17.1 °F 35% 30.04 in 10.0 mi SW 3.5 mph - N/A   Clear
9:53 AM 46.0 °F - 19.9 °F 35% 30.02 in 10.0 mi Calm Calm - N/A   Clear
10:53 AM 48.9 °F - 17.1 °F 28% 30.01 in 10.0 mi ESE 8.1 mph - N/A   Clear
11:53 AM 48.9 °F - 16.0 °F 27% 30.01 in 10.0 mi SE 6.9 mph 16.1 mph N/A   Clear
12:53 PM 51.1 °F - 17.1 °F 26% 30.00 in 10.0 mi Variable 5.8 mph - N/A   Clear
1:53 PM 53.1 °F - 19.0 °F 26% 29.97 in 10.0 mi ESE 11.5 mph 16.1 mph N/A   Clear
2:53 PM 55.0 °F - 21.0 °F 27% 29.94 in 10.0 mi ESE 8.1 mph 18.4 mph N/A   Clear
3:53 PM 55.9 °F - 23.0 °F 28% 29.94 in 10.0 mi East 10.4 mph 18.4 mph N/A   Partly Cloudy
4:53 PM 54.0 °F - 24.1 °F 31% 29.94 in 10.0 mi SSE 8.1 mph 17.3 mph N/A   Scattered Clouds
5:53 PM 53.1 °F - 24.1 °F 32% 29.96 in 10.0 mi East 6.9 mph - N/A   Mostly Cloudy
6:53 PM 48.9 °F - 21.0 °F 33% 29.98 in 10.0 mi NNE 6.9 mph - N/A   Scattered Clouds
7:53 PM 42.1 °F 37.7 °F 21.9 °F 45% 30.01 in 10.0 mi WNW 6.9 mph - N/A   Clear
8:53 PM 39.0 °F 34.8 °F 21.0 °F 49% 30.02 in 10.0 mi West 5.8 mph - N/A   Clear
9:53 PM 37.9 °F 34.4 °F 21.0 °F 51% 30.02 in 10.0 mi WSW 4.6 mph - N/A   Clear
10:53 PM 37.0 °F 32.4 °F 21.0 °F 52% 30.01 in 10.0 mi WSW 5.8 mph - N/A   Clear
11:53 PM 37.9 °F 31.5 °F 21.0 °F 51% 30.01 in 10.0 mi WSW 9.2 mph - N/A   Clear